DELTA 1 DEB, 10716

Orbit data source: Space-Track

DELTA 1 DEB, 10716 is space debris in SSO originally from a launch on Thu, 29 Jul 1976 UTC launched from the Air Force Western Test Range (AFWTR). Debris objects in space refer to the collection of defunct objects orbiting the Earth. Examples of debris include non-operational satellites, rocket bodies, and fragments generated from explosions, collisions, or faulty payload assembly.

Loading next visibility...
Identifier
10716, 1976-077AM
Orbit
SSO
Last TLE update
8 hours ago
Origin
Manufacturer
Unknown
Mission
Spacecraft
Bus & Motor
Unknown
Mass
Unknown
Launch date (UTC)
1976-07-29 (49 years ago)
Launch vehicle
Unknown
Launch site
Air Force Western Test Range (AFWTR)
Object type
Payload
Rocket body
Debris
Shape & HBR
Unknown
Radar Cross Section
Small (<0.1 m²)

Expand to show TLE details & history

TLE from 8 hours ago
0 DELTA 1 DEB
1 10716U 76077AM  25186.40882233  .00000744  00000-0  33636-2 0  9992
2 10716 102.7386 339.5778 0123467  67.6476 351.3509 12.80683168232371
Epoch: 2025-07-05T09:48Z
TLE epoch observation values (Epoch: 2025-07-05T09:48:42.249Z)
Latitude
56.62573°
Longitude
-111.21099°
Altitude
1,253.779 km
Speed
7.278 km/s
True Right ascension
21h 18m 26s
True Declination
56° 28' 40"
Sunlit
Object was in daylight at epoch
Visualization orbit readout
Latitude
-40.82015°
Longitude
77.94143°
Altitude
1,440.115 km
Speed
7.101 km/s
Apparent Right ascension
13h 20m 49s
Apparent Declination
-60° 00' 23"
Sunlit
Object is in daylight
Visualization observer readout
Local Sidereal Time
06:04:49
Azimuth
139.826° SSE
Elevation
-42.886°
Doppler factor
1
Orbital elements
Apogee altitude
1,431.54 km
Perigee altitude
1,241.044 km
Semi-major axis
7,714.429 km
Eccentricity
0.01235
Inclination
102.7386°
RAAN
339.5778°
Arg. of periapsis
67.6476°
True anomaly
Unknown
Mean anomaly
351.3509°
Eccentric anomaly
Unknown
Mean motion
3.20323 °/min
Orbital period
112.39 mins
BSTAR
0.0033636
Loading maneuver chart data...
Loading SW <> Apogee altitude chart data...
Loading historical data...
Loading historical data...
Loading historical data...
Loading historical data...
Loading historical data...
Loading historical data...
Loading historical data...

DELTA 1 DEB Visibility forecast

Observer location: undefined°, undefined°

Span
Click to sort rows by Start time (UTC) header in descending order
Start Az.
Max El. time (UTC)
Max El. Az.
Max El.
End time (UTC)
End Az.
6 mins2025-07-05 21:26:20.658Z65.954° ENE2025-07-05 21:29:20.658Z90.277° ESE13.547°2025-07-05 21:32:20.658Z114.912° SE
14 mins2025-07-05 23:14:20.658Z21.02° NNE2025-07-05 23:20:20.658Z60.833° ENE44.412°2025-07-05 23:28:20.658Z196.88° SSW
9 mins2025-07-06 01:06:20.658Z344.091° N2025-07-06 01:10:20.658Z306.238° NW20.423°2025-07-06 01:15:20.658Z262.977° W
8 mins2025-07-06 08:12:20.658Z87.527° E2025-07-06 08:16:20.658Z49.632° ENE18.961°2025-07-06 08:20:20.658Z13.444° NNE
13 mins2025-07-06 09:59:20.658Z162.063° S2025-07-06 10:05:20.658Z209.506° SW44.821°2025-07-06 10:12:20.658Z340.168° N
5 mins2025-07-06 11:54:20.658Z246.698° WSW2025-07-06 11:56:20.658Z263.734° W13.444°2025-07-06 11:59:20.658Z289.65° WNW
|